Weather in Gwadar

Pakistan     25°09′03″N   62°19′29″E
temp.,
°C
wind,
m/s
gust,
m/s
humid.,
%
clouds,
%
prec.,
mm/h
press.,
hPa
HPBL,
m
9 may, sun
sun923:00+28s01730 0.0 100955
02:00+27w33815 0.0 1007135
05:00+27sw228280 0.0 100659
08:00+29wsw34720 0.0 1008382
11:00+34sw44380 0.0 1007983
14:00+36ssw87360 0.0 10051563
17:00+33sw910490 0.0 1004713
20:00+29sw610720 0.0 1005346
10 may, mon
mon1023:00+28wsw47750 0.0 1006216
02:00+27wnw11780 0.0 100560
05:00+27wsw46800 0.0 1005132
08:00+29wsw45700 0.0 1006452
11:00+34wsw66390 0.0 1006988
14:00+37sw88270 0.0 10042028
17:00+36wsw1111180 0.0 10021154
20:00+31wsw610290 0.0 1003152
11 may, tue
tue1123:00+28wsw711520 0.0 1004204
02:00+27w510550 0.0 1004205
05:00+26nw34660 0.0 1005110
08:00+29w47540 0.0 1006397
11:00+34wsw55270 0.0 1006950
14:00+35sw96320 0.0 10041158
17:00+34sw99410 0.0 1002692
20:00+30wsw69542 0.0 1004333
12 may, wed
wed1223:00+29wsw47555 0.0 1004170
02:00+28w23540 0.0 100348
05:00+28sw34580 0.0 100352
08:00+30wnw22490 0.0 1005159
11:00+34s43320 0.0 1005762
14:00+35ssw86350 0.0 1003648
17:00+32ssw99500 0.0 1001437
20:00+29wsw69720 0.0 1001316
13 may, thu
thu1323:00+28ese11820 0.0 100260
02:00+28e22800 0.0 100147
05:00+27ese33840 0.0 100155
08:00+29se22630 0.0 1003162
11:00+36sw22230 0.0 1003926
14:00+38sw56170 0.0 10001682
17:00+35ssw1011260 0.0 998409
20:00+31sw610560 0.0 1000290